Location: W��osienica
(50.0209°N, 19.3237°E)
Time: 18:04:40
(UTC+01:00)

ISS - Visible Passes

Search period start: 11 December 2018 00:00
Search period end: 21 December 2018 00:00
Orbit: 401 x 408 km, 51.6° (Epoch: 12 December)

Date Brightness Start Highest point End Pass type
(mag) Time Alt. Az. Time Alt. Az. Time Alt. Az.
11 Dec -3.1 16:38:52 10° WNW 16:42:04 56° SSW 16:45:17 10° SE visible
11 Dec -0.8 18:16:28 10° WSW 18:18:00 13° SW 18:19:34 10° SSW visible
12 Dec -1.2 17:23:32 10° W 17:26:03 20° SW 17:28:32 10° SSE visible
13 Dec -1.8 16:31:02 10° W 16:34:00 31° SSW 16:36:56 10° SSE visible
14 Dec -0.3 17:16:57 10° WSW 17:17:44 11° SW 17:18:31 10° SSW visible
15 Dec -0.7 16:23:30 10° W 16:25:45 17° SW 16:28:00 10° S visible
